Location: Campillo
(40.8621°N, 4.2488°W)
Time: 07:29:44
(UTC+00:00)

USA 245 - Pass Details

Date: 29 September 2021
Orbit: 268 x 1012 km, 97.9° (Epoch: 21 October)

Event Time Altitude Azimuth Distance (km) Brightness Sun altitude
Exits shadow 21:03:33 15° 4° (N) 1,939 6.3 -33.9°
Drops below altitude 10° 21:04:32 10° 0° (N) 2,307 6.8 -34.0°
Sets 21:07:13 0° 354° (N) 3,363 7.8 -34.5°
